sat.trackr.live / text

‹ back to catalog

STARLINK-32099

NORAD 59697 · 2024-086R

PAYLOAD ACTIVE UNKNOWN

§ Identity

Operator
Country
US
Launch date
2024-05-08
Launch site
AFETR
Launch vehicle
Mass (kg)
RCS (m²)

Purposes: comms

External: N2YO · Heavens-Above · Gunter

§ Orbital elements

Epoch: 2026-05-24T20:35:38.976000Z

Period
94.27 min
Inclination
43.0016°
Eccentricity
0.0001593
Mean motion
15.27570144 rev/d
Perigee alt
482.0 km
Apogee alt
484.2 km
Semi-major
6,861.2 km
B*
5.3803e-4
RAAN
349.5238°
Arg perigee
262.8273°
Mean anomaly
97.2397°
Rev number
11,576

§ Raw data

STARLINK-320991 59697U 24086R   26144.85809000  .00014568  00000+0  53803-3 0  99982 59697  43.0016 349.5238 0001593 262.8273  97.2397 15.27570144115767

JSON: /api/v1/satellites/59697 · /tle

For live sub-satellite position, see the globe view (requires WebGL).

§ Visibility from observer

Set your observer location to see the next 7 days of passes ≥ 10°. The values pass through the URL so the page stays shareable.

No JS? Fill the form by hand. The geolocation button needs JavaScript.